OPS 4682 DEB, 14717

Orbit data source: Space-Track

OPS 4682 DEB, 14717 is space debris in LEO originally from a launch on Sat, 03 Apr 1965 UTC launched from the Air Force Western Test Range (AFWTR). Debris objects in space refer to the collection of defunct objects orbiting the Earth. Examples of debris include non-operational satellites, rocket bodies, and fragments generated from explosions, collisions, or faulty payload assembly.

Loading next visibility...
Identifier
14717, 1965-027Q
Orbit
LEO
Country
Flag of USUS
Related business
Manufacturer
Unknown
Mission
Spacecraft
Bus & Motor
Unknown
Mass
Unknown
Launch date (UTC)
1965-04-03 (61 years ago)
Launch vehicle
Unknown
Launch site
Air Force Western Test Range (AFWTR)
Object type
Payload
Rocket body
Debris
Shape & HBR
Unknown shape, 0.1 m
Radar Cross Section
Medium (>0.1 m² and <1 m²)

Expand to show TLE details & history
Last TLE update: 12 hours ago

TLE from 12 hours ago
0 OPS 4682 DEB
1 14717U 65027Q   26264.24725406  .00000755  00000-0  25686-2 0  9996
2 14717  90.2390 352.7862 0034124 188.2780 197.7144 12.97540378128545
Epoch: 2026-09-21T05:56Z
TLE epoch observation values (Epoch: 2026-09-21T05:56:02.750Z)
Latitude
25.90247°
Longitude
-96.47057°
Altitude
1,299.759 km
Speed
7.197 km/s
True Right ascension
23h 30m 40s
True Declination
25° 46' 38"
Sunlit
Object was in full shadow at epoch
Visualization orbit readout
Latitude
Unknown
Longitude
Unknown
Altitude
Unknown
Speed
Unknown
Apparent Right ascension
Unknown
Apparent Declination
Unknown
Sunlit
N/A
Visualization observer readout
Local Sidereal Time
10:57:23
Azimuth
Unknown
Elevation
Unknown
Doppler factor
Unknown
Orbital elements
Apogee altitude
1,294.964 km
Perigee altitude
1,242.775 km
Semi-major axis
7,647.006 km
Eccentricity
0.00341
Inclination
90.239°
RAAN
352.7862°
Arg. of periapsis
188.278°
True anomaly
197.5959°
Mean anomaly
197.7144°
Eccentric anomaly
197.6551°
Mean motion
3.24568 °/min
Orbital period
110.92 mins
BSTAR
0.0025686
Loading maneuver chart data...
Computing Atmospheric mass density...
Loading historical data...
Loading historical data...
Loading historical data...
Loading historical data...
Loading historical data...
Loading historical data...
Loading historical data...

Documentation

Showing up to 5 results
|